Flag for Germany Weather past 2 weeks in Rheine, North Rhine-Westphalia, Germany

Now
32 °F

Chilly.


Feels Like: 32 °F
Forecast: 36 / 56 °F
Wind: No wind

Location: Rheine-Bentlage

Current Time: Apr 28, 2015 at 4:42:19 AM

Latest Report: Apr 28, 2015 at 3:20 AM


Visibility: N/A

Pressure: 29.86 "Hg

Humidity: 93%

Dew point: 30 °F

Location of RheineLocation

Historic Weather in Rheine — Graph

°F

Rheine temperature yesterday

Maximum temperature yesterday: 55 °F (at 3:20 PM)
Minimum temperature yesterday: 41 °F (at 11:20 PM)
Average temperature yesterday: 48 °F

Past Weeks' High & Low Weather Summary

 TemperatureHumidityPressure
High73 °F (Apr 15, 4:20 PM)100% (Apr 18, 7:20 AM)30.48 "Hg (Apr 18, 7:20 AM)
Low32 °F (Apr 18, 7:20 AM)30% (Apr 21, 2:20 PM)29.68 "Hg (Apr 26, 2:20 PM)
Average50 °F69%30.11 "Hg
* Reported Apr 13 3:20 AM — Apr 28 3:20 AM, Rheine, Weather by CustomWeather, © 2015

Note: Actual official high and low records may vary slightly from our data, if they occured in-between our weather recording intervals... More about our weather records

Advertising

Rheine weather history for previous 24 hours

 ConditionsComfort  
Time TempWeatherWind HumidityBarometerVisibility
3:20 AM
Tue, Apr 28
32 °FChilly.No wind93%29.86 "HgN/A
2:20 AM34 °FChilly.No wind87%29.89 "HgN/A
1:20 AM37 °FChilly.3 mph75%29.86 "HgN/A
12:20 AM39 °FChilly.2 mph70%29.86 "HgN/A
11:20 PM
Mon, Apr 27
41 °FQuite cool.6 mph70%29.86 "HgN/A
10:20 PM43 °FQuite cool.7 mph66%29.86 "HgN/A
9:20 PM46 °FCool.9 mph57%29.83 "HgN/A
8:20 PM48 °FCool.9 mph58%29.83 "HgN/A
7:20 PM50 °FCool.10 mph54%29.80 "HgN/A
6:20 PM52 °FCool.9 mph50%29.77 "HgN/A
5:20 PM54 °FCool.12 mph41%29.77 "HgN/A
4:20 PM54 °FCool.9 mph44%29.77 "HgN/A
3:20 PM55 °FPartly sunny.13 mph41%29.77 "HgN/A
2:20 PM54 °FBroken clouds.10 mph41%29.77 "HgN/A
1:20 PM52 °FBroken clouds.10 mph50%29.77 "HgN/A
12:20 PM50 °FPartly sunny.8 mph62%29.77 "HgN/A
11:20 AM48 °FPartly sunny.12 mph66%29.77 "HgN/A
10:20 AM48 °FPartly sunny.12 mph71%29.74 "HgN/A
9:20 AM45 °FPartly sunny.9 mph87%29.74 "HgN/A
8:20 AM45 °FPartly sunny.7 mph93%29.71 "HgN/A
7:20 AM45 °FLight rain. Partly sunny.9 mph87%29.71 "HgN/A
6:20 AM45 °FLight rain. Passing clouds.8 mph87%29.68 "HgN/A
5:20 AM45 °FLight rain. Passing clouds.9 mph93%29.68 "Hg5 mi
4:20 AM45 °FQuite cool.8 mph100%29.68 "HgN/A
Weather by CustomWeather, © 2015

See weather overviewHow to use our weather pages